{"data":{"norad_id":58702,"epoch":"2026-09-19T22:47:13.191072Z","epoch_age_seconds":65729,"freshness":"FRESH","line1":"1 58702U 24004C   26262.94945823  .00003538  00000+0  13393-3 0  9994","line2":"2 58702  97.4651  88.8850 0006190  36.4517 323.7142 15.27586524150233","mean_motion":15.27586524,"eccentricity":0.000619,"inclination_deg":97.4651,"raan_deg":88.885,"arg_perigee_deg":36.4517,"mean_anomaly_deg":323.7142,"bstar":0.00013393,"rev_number":15023,"period_min":94.266346120241,"perigee_km":478.78249880498,"apogee_km":487.27662300738,"semimajor_km":6861.1665609062,"source":"CELESTRAK","updated_at":"2026-09-20T09:00:33.256374Z"}}